User: anonymous   Login
Location: Unspecified
(0.0000°N, 0.0000°E)
Time: 22:19:03
(UTC+00:00)
Language:

X-37B - Orbit

View from above orbital plane
View from above orbital plane
View from above satellite
View from above satellite

Ground track
Ground track

The orbit is defined by the following mean orbital elements,

1 37375U 11010A   12151.09943120 0.00000000  00000-0  00000-0 0    09
2 37375  41.8922  42.5837 0008151   3.7995 356.1998 15.96578464    06
Epoch (UTC): 30 May 2012 02:23:10
Eccentricity: 0.0008151
inclination: 41.8922°
perigee height: 278 km
apogee height: 289 km
right ascension of ascending node: 42.5837°
argument of perigee: 3.7995°
revolutions per day: 15.96578464
mean anomaly at epoch: 356.1998°

The dashed part of the orbit path shows where the satellite is in the earth's shadow,  

DLR